This demonstration page uses our WeatherBlox Daily Observations layout. Learn more.

Left ArrowRight Arrow

Hourly Observations for June 28, 2019

Temp ( °F °C ) Dew Point ( °F °C ) Humidity (%) Winds ( mph kmh ) Pressure ( in mb ) Visibility ( mi km ) Precip ( " mm )
12:56 am 00:56 Mostly Clear 81 27 72 22 74 74 SSW 7 11 29.91 1013 10 16 0.00 0.00
1:56 am 01:56 Mostly Clear 81 27 72 22 74 74 SSE 12 19 29.90 1012 10 16 0.00 0.00
2:56 am 02:56 Mostly Clear 79 26 72 22 79 79 SSE 13 20 29.88 1012 10 16 0.00 0.00
3:56 am 03:56 Partly Cloudy 79 26 70 21 74 74 S 10 17 29.87 1012 10 16 0.00 0.00
4:56 am 04:56 Mostly Clear 77 25 70 21 79 79 SSE 12 19 29.88 1012 10 16 0.00 0.00
5:56 am 05:56 Partly Cloudy with Mist and Fog 77 25 70 21 79 79 SSE 9 15 29.88 1012 6 10 0.00 0.00
6:56 am 06:56 Sunny with Mist and Fog 77 25 70 21 79 79 SSE 9 15 29.88 1012 6 10 0.00 0.00
7:56 am 07:56 Sunny 79 26 70 21 74 74 SSE 8 13 29.89 1012 7 11 0.00 0.00
9:00 am 09:00 Sunny 81 27 70 21 70 70 S 3 6 29.91 1013 7 11 0.00 0.00
9:56 am 09:56 Mostly Sunny 82 28 70 21 66 66 SE 9 15 29.92 1013 7 11 0.00 0.00
10:56 am 10:56 Mostly Sunny 86 30 70 21 59 59 SE 7 11 29.91 1013 7 11 0.00 0.00
11:56 am 11:56 Mostly Sunny 90 32 70 21 52 52 SE 7 11 29.91 1013 7 11 0.00 0.00
12:56 pm 12:56 Mostly Sunny 88 31 72 22 59 59 SSE 10 17 29.90 1013 7 11 0.00 0.00
1:56 pm 13:56 Mostly Sunny 91 33 72 22 52 52 SE 8 13 29.92 1013 7 11 0.00 0.00
2:56 pm 14:56 Mostly Sunny 91 33 70 21 49 49 SSE 10 17 29.93 1014 7 11 0.00 0.00
3:56 pm 15:56 undefined N/A N/A N/A S 9 15 N/A N/A 0.00 0.00
4:56 pm 16:56 Sunny 93 34 72 22 49 49 SSE 10 17 29.90 1012 7 11 0.00 0.00
5:56 pm 17:56 Sunny 95 35 73 23 50 50 SSW 6 9 29.87 1012 7 11 0.00 0.00
6:56 pm 18:56 Sunny 95 35 73 23 50 50 ESE 6 9 29.88 1012 7 11 0.00 0.00
7:56 pm 19:56 Sunny 91 33 75 24 59 59 E 5 7 29.91 1013 7 11 0.00 0.00
8:56 pm 20:56 Sunny 90 32 75 24 63 63 E 3 6 29.91 1013 7 11 0.00 0.00
9:56 pm 21:56 Clear 88 31 75 24 66 66 ENE 3 6 29.92 1013 7 11 0.00 0.00
10:56 pm 22:56 Mostly Clear 86 30 75 24 70 70 E 5 7 29.92 1013 7 11 0.00 0.00
11:56 pm 23:56 Clear 82 28 75 24 79 79 E 6 9 29.93 1014 8 13 0.00 0.00

Powered by AerisWeather